CHB6436 ZSHC-ZUCK

Flight info

Callsign CHB6436
Flight time N/A
Altitude 32100
Route K0854S1100 NIV92D NIVIK W135 DOGVI W545 VEMEX W73 MADUK W51 LEGIV W164 ADGOL W50 XSH W80 IRPOG IRPOG2H
Aircraft A320/M-SDE3FGHIRWY/LB1

Departure

Time 2026-04-28 10:42
Airport Hangzhou Xiaoshan International Airport (ZSHC)

Arrival

Time N/A
Airport Chongqing Jiangbei International Airport (ZUCK)
Time Latitude Longitude Altitude Speed Heading
2026-04-28 10:37 30.24161 120.42249 32 ft 27 kts 242°
2026-04-28 10:38 30.24073 120.42051 32 ft 28 kts 241°
2026-04-28 10:38 30.23979 120.41843 32 ft 30 kts 244°
2026-04-28 10:38 30.23883 120.41624 32 ft 31 kts 242°
2026-04-28 10:39 30.23602 120.40968 32 ft 2 kts 294°
2026-04-28 10:39 30.23618 120.40960 31 ft 5 kts 341°
2026-04-28 10:39 30.23684 120.40927 32 ft 13 kts 335°
2026-04-28 10:40 30.23770 120.40879 34 ft 14 kts 333°
2026-04-28 10:40 30.23855 120.40911 34 ft 14 kts 50°
2026-04-28 10:40 30.23904 120.41021 34 ft 19 kts 63°
2026-04-28 10:40 30.24060 120.41367 32 ft 89 kts 62°
2026-04-28 10:41 30.24456 120.42253 33 ft 155 kts 61°
2026-04-28 10:41 30.24828 120.43036 219 ft 176 kts 59°
2026-04-28 10:42 30.26972 120.47823 1653 ft 233 kts 63°
2026-04-28 10:42 30.27487 120.49009 2263 ft 236 kts 63°
2026-04-28 10:42 30.28228 120.50716 3177 ft 239 kts 64°
2026-04-28 10:42 30.28980 120.52443 4076 ft 242 kts 65°
2026-04-28 10:43 30.29746 120.54196 4919 ft 246 kts 66°
2026-04-28 10:43 30.31593 120.58411 6435 ft 270 kts 68°
2026-04-28 10:43 30.32035 120.59768 6815 ft 274 kts 83°
2026-04-28 10:44 30.31994 120.61947 7451 ft 273 kts 110°
2026-04-28 10:44 30.31114 120.63866 8098 ft 272 kts 136°
2026-04-28 10:44 30.29604 120.65143 8785 ft 271 kts 156°